Time,TemperatureF,DewpointF,PressureIn,WindDirection,WindDirectionDegrees,WindSpeedMPH,WindSpeedGustMPH,Humidity,HourlyPrecipIn,Conditions,Clouds,dailyrainin,SoftwareType,DateUTC
2013-11-16 00:03:00,64.0,58.1,29.29,North,0,0.0,0.0,81,0.00,,BKN,0.00,VWS V14.01,2013-11-16 06:03:00,
2013-11-16 00:08:00,64.0,58.1,29.29,North,0,0.0,0.0,81,0.00,,BKN,0.00,VWS V14.01,2013-11-16 06:08:00,
2013-11-16 00:13:00,64.2,58.3,29.29,North,0,0.0,0.0,81,0.00,,BKN,0.00,VWS V14.01,2013-11-16 06:13:00,
2013-11-16 00:19:00,64.2,58.3,29.29,North,0,0.0,0.0,81,0.00,,BKN,0.00,VWS V14.01,2013-11-16 06:19:00,
2013-11-16 00:24:00,64.4,58.1,29.29,North,0,0.0,0.0,80,0.00,,BKN,0.00,VWS V14.01,2013-11-16 06:24:00,
2013-11-16 00:29:00,64.4,58.1,29.29,North,0,0.0,0.0,80,0.00,,BKN,0.00,VWS V14.01,2013-11-16 06:29:00,
2013-11-16 00:34:00,64.4,58.1,29.29,North,0,0.0,0.0,80,0.00,,BKN,0.00,VWS V14.01,2013-11-16 06:34:00,
2013-11-16 00:39:00,64.4,58.1,29.29,North,0,0.0,0.0,80,0.00,,BKN,0.00,VWS V14.01,2013-11-16 06:39:00,
2013-11-16 00:45:00,64.2,58.3,29.29,North,0,0.0,0.0,81,0.00,,BKN,0.00,VWS V14.01,2013-11-16 06:45:00,
2013-11-16 00:50:00,64.2,58.3,29.29,North,0,0.0,0.0,81,0.00,,BKN,0.00,VWS V14.01,2013-11-16 06:50:00,
2013-11-16 00:55:00,64.2,58.3,29.29,North,0,0.0,0.0,81,0.00,,BKN,0.00,VWS V14.01,2013-11-16 06:55:00,
2013-11-16 01:00:00,64.2,58.6,29.29,North,0,0.0,0.0,82,0.00,,BKN,0.00,VWS V14.01,2013-11-16 07:00:00,
2013-11-16 01:05:00,64.0,58.1,29.29,North,0,0.0,0.0,81,0.00,,BKN,0.00,VWS V14.01,2013-11-16 07:05:00,
2013-11-16 01:10:00,63.9,58.3,29.29,North,0,0.0,0.0,82,0.00,,BKN,0.00,VWS V14.01,2013-11-16 07:10:00,
2013-11-16 01:15:00,63.9,58.3,29.29,North,0,0.0,0.0,82,0.00,,BKN,0.00,VWS V14.01,2013-11-16 07:15:00,
2013-11-16 01:21:00,63.9,58.3,29.29,North,0,0.0,0.0,82,0.00,,BKN,0.00,VWS V14.01,2013-11-16 07:21:00,
2013-11-16 01:26:00,63.7,58.1,29.29,North,0,0.0,0.0,82,0.00,,BKN,0.00,VWS V14.01,2013-11-16 07:26:00,
2013-11-16 01:31:00,63.9,58.3,29.29,North,0,0.0,0.0,82,0.00,,BKN,0.00,VWS V14.01,2013-11-16 07:31:00,
2013-11-16 01:36:00,63.9,58.3,29.26,North,0,0.0,0.0,82,0.00,,BKN,0.00,VWS V14.01,2013-11-16 07:36:00,
2013-11-16 01:41:00,63.9,58.3,29.26,North,0,0.0,0.0,82,0.00,,BKN,0.00,VWS V14.01,2013-11-16 07:41:00,
2013-11-16 01:46:00,63.9,58.3,29.26,North,0,0.0,0.0,82,0.00,,BKN,0.00,VWS V14.01,2013-11-16 07:46:00,
2013-11-16 01:51:00,63.9,58.3,29.29,North,0,0.0,0.0,82,0.00,,BKN,0.00,VWS V14.01,2013-11-16 07:51:00,
2013-11-16 01:57:00,63.7,58.1,29.29,North,0,0.0,0.0,82,0.00,,BKN,0.00,VWS V14.01,2013-11-16 07:57:00,
2013-11-16 02:02:00,63.7,58.1,29.29,North,0,0.0,0.0,82,0.00,,BKN,0.00,VWS V14.01,2013-11-16 08:02:00,
2013-11-16 02:07:00,63.7,58.1,29.26,North,0,0.0,0.0,82,0.00,,BKN,0.00,VWS V14.01,2013-11-16 08:07:00,
2013-11-16 02:12:00,63.7,58.1,29.26,North,0,0.0,0.0,82,0.00,,BKN,0.00,VWS V14.01,2013-11-16 08:12:00,
2013-11-16 02:17:00,63.5,57.9,29.26,North,0,0.0,0.0,82,0.00,,BKN,0.00,VWS V14.01,2013-11-16 08:17:00,
2013-11-16 02:22:00,63.5,57.9,29.26,North,0,0.0,0.0,82,0.00,,BKN,0.00,VWS V14.01,2013-11-16 08:22:00,
2013-11-16 02:27:00,63.5,58.2,29.26,North,0,0.0,0.0,83,0.00,,BKN,0.00,VWS V14.01,2013-11-16 08:27:00,
2013-11-16 02:32:00,63.5,58.2,29.26,North,0,0.0,0.0,83,0.00,,BKN,0.00,VWS V14.01,2013-11-16 08:32:00,
2013-11-16 02:38:00,63.7,58.4,29.26,North,0,0.0,0.0,83,0.00,,BKN,0.00,VWS V14.01,2013-11-16 08:38:00,
2013-11-16 02:43:00,63.7,58.4,29.26,North,0,0.0,0.0,83,0.00,,BKN,0.00,VWS V14.01,2013-11-16 08:43:00,
2013-11-16 02:48:00,63.7,58.4,29.26,North,0,0.0,0.0,83,0.00,,BKN,0.00,VWS V14.01,2013-11-16 08:48:00,
2013-11-16 02:53:00,63.7,58.8,29.26,North,0,0.0,0.0,84,0.00,,BKN,0.00,VWS V14.01,2013-11-16 08:53:00,
2013-11-16 02:58:00,63.9,58.9,29.26,North,0,0.0,0.0,84,0.00,,BKN,0.00,VWS V14.01,2013-11-16 08:58:00,
2013-11-16 03:03:00,63.9,59.3,29.26,North,0,0.0,0.0,85,0.00,,BKN,0.00,VWS V14.01,2013-11-16 09:03:00,
2013-11-16 03:08:00,63.9,59.3,29.26,North,0,0.0,0.0,85,0.00,,BKN,0.00,VWS V14.01,2013-11-16 09:08:00,
2013-11-16 03:13:00,63.7,59.1,29.26,North,0,0.0,0.0,85,0.00,,BKN,0.00,VWS V14.01,2013-11-16 09:13:00,
2013-11-16 03:18:00,63.7,59.4,29.26,North,0,0.0,0.0,86,0.00,,BKN,0.00,VWS V14.01,2013-11-16 09:18:00,
2013-11-16 03:24:00,63.7,59.7,29.26,North,0,0.0,0.0,87,0.00,,BKN,0.00,VWS V14.01,2013-11-16 09:24:00,
2013-11-16 03:29:00,63.7,59.7,29.26,North,0,0.0,0.0,87,0.00,,BKN,0.00,VWS V14.01,2013-11-16 09:29:00,
2013-11-16 03:34:00,63.9,60.2,29.26,North,0,0.0,0.0,88,0.00,,BKN,0.00,VWS V14.01,2013-11-16 09:34:00,
2013-11-16 03:39:00,64.0,60.7,29.26,North,0,0.0,0.0,89,0.00,,BKN,0.00,VWS V14.01,2013-11-16 09:39:00,
2013-11-16 03:44:00,64.2,60.9,29.26,North,0,0.0,0.0,89,0.00,,BKN,0.00,VWS V14.01,2013-11-16 09:44:00,
2013-11-16 03:49:00,64.2,60.9,29.26,North,0,0.0,0.0,89,0.00,,BKN,0.00,VWS V14.01,2013-11-16 09:49:00,
2013-11-16 03:54:00,64.4,60.8,29.26,North,0,0.0,0.0,88,0.00,,BKN,0.00,VWS V14.01,2013-11-16 09:54:00,
2013-11-16 03:59:00,64.6,61.0,29.26,North,0,0.0,0.0,88,0.00,,BKN,0.00,VWS V14.01,2013-11-16 09:59:00,
2013-11-16 04:04:00,64.8,61.1,29.26,North,0,0.0,0.0,88,0.00,,BKN,0.00,VWS V14.01,2013-11-16 10:04:00,
2013-11-16 04:09:00,64.8,61.1,29.26,North,0,0.0,0.0,88,0.00,,BKN,0.00,VWS V14.01,2013-11-16 10:09:00,
2013-11-16 04:14:00,64.8,61.1,29.26,North,0,0.0,0.0,88,0.00,,BKN,0.00,VWS V14.01,2013-11-16 10:14:00,
2013-11-16 04:19:00,64.8,60.8,29.26,North,0,0.0,0.0,87,0.00,,BKN,0.00,VWS V14.01,2013-11-16 10:19:00,
2013-11-16 04:25:00,64.9,61.0,29.26,North,0,0.0,0.0,87,0.00,,BKN,0.00,VWS V14.01,2013-11-16 10:25:00,
2013-11-16 04:30:00,64.9,61.0,29.26,North,0,0.0,0.0,87,0.00,,BKN,0.00,VWS V14.01,2013-11-16 10:30:00,
2013-11-16 04:35:00,64.9,60.7,29.26,North,0,0.0,0.0,86,0.00,,BKN,0.00,VWS V14.01,2013-11-16 10:35:00,
2013-11-16 04:40:00,64.9,60.7,29.26,North,0,0.0,0.0,86,0.00,,BKN,0.00,VWS V14.01,2013-11-16 10:40:00,
2013-11-16 04:45:00,65.1,60.5,29.26,North,0,0.0,0.0,85,0.00,,BKN,0.00,VWS V14.01,2013-11-16 10:45:00,
2013-11-16 04:50:00,65.1,60.5,29.26,North,0,0.0,0.0,85,0.00,,BKN,0.00,VWS V14.01,2013-11-16 10:50:00,
2013-11-16 04:55:00,65.1,60.5,29.26,North,0,0.0,0.0,85,0.00,,BKN,0.00,VWS V14.01,2013-11-16 10:55:00,
2013-11-16 05:00:00,65.1,60.2,29.26,North,0,0.0,0.0,84,0.00,,BKN,0.00,VWS V14.01,2013-11-16 11:00:00,
2013-11-16 05:05:00,65.3,60.3,29.26,North,0,0.0,0.0,84,0.00,,BKN,0.00,VWS V14.01,2013-11-16 11:05:00,
2013-11-16 05:10:00,65.3,60.3,29.26,North,0,0.0,0.0,84,0.00,,BKN,0.00,VWS V14.01,2013-11-16 11:10:00,
2013-11-16 05:16:00,65.3,60.3,29.26,North,0,0.0,0.0,84,0.00,,BKN,0.00,VWS V14.01,2013-11-16 11:16:00,
2013-11-16 05:21:00,65.3,60.3,29.26,North,0,0.0,0.0,84,0.00,,BKN,0.00,VWS V14.01,2013-11-16 11:21:00,
2013-11-16 05:26:00,65.5,60.5,29.26,North,0,0.0,0.0,84,0.00,,BKN,0.00,VWS V14.01,2013-11-16 11:26:00,
2013-11-16 05:31:00,65.5,60.5,29.26,North,0,0.0,0.0,84,0.00,,BKN,0.00,VWS V14.01,2013-11-16 11:31:00,
2013-11-16 05:36:00,65.5,60.2,29.26,North,0,0.0,0.0,83,0.00,,BKN,0.00,VWS V14.01,2013-11-16 11:36:00,
2013-11-16 05:41:00,65.5,60.5,29.26,North,0,0.0,0.0,84,0.00,,BKN,0.00,VWS V14.01,2013-11-16 11:41:00,
2013-11-16 05:46:00,65.5,60.5,29.26,North,0,0.0,0.0,84,0.00,,BKN,0.00,VWS V14.01,2013-11-16 11:46:00,
2013-11-16 05:51:00,65.5,60.2,29.26,North,0,0.0,0.0,83,0.00,,BKN,0.00,VWS V14.01,2013-11-16 11:51:00,
2013-11-16 05:56:00,65.5,60.2,29.26,North,0,0.0,0.0,83,0.00,,BKN,0.00,VWS V14.01,2013-11-16 11:56:00,
2013-11-16 06:01:00,65.5,60.2,29.26,North,0,0.0,0.0,83,0.00,,BKN,0.00,VWS V14.01,2013-11-16 12:01:00,
2013-11-16 06:06:00,65.5,60.2,29.26,North,0,0.0,0.0,83,0.00,,BKN,0.00,VWS V14.01,2013-11-16 12:06:00,
2013-11-16 06:11:00,65.5,60.5,29.26,North,0,0.0,0.0,84,0.00,,BKN,0.00,VWS V14.01,2013-11-16 12:11:00,
2013-11-16 06:17:00,65.5,60.5,29.26,North,0,0.0,0.0,84,0.00,,BKN,0.00,VWS V14.01,2013-11-16 12:17:00,
2013-11-16 06:22:00,65.5,60.5,29.26,North,0,0.0,0.0,84,0.00,,BKN,0.00,VWS V14.01,2013-11-16 12:22:00,
2013-11-16 06:27:00,65.5,60.5,29.26,North,0,0.0,0.0,84,0.00,,BKN,0.00,VWS V14.01,2013-11-16 12:27:00,
2013-11-16 06:32:00,65.7,60.7,29.26,North,0,0.0,0.0,84,0.00,,BKN,0.00,VWS V14.01,2013-11-16 12:32:00,
2013-11-16 06:37:00,65.7,60.4,29.26,North,0,0.0,0.0,83,0.00,,BKN,0.00,VWS V14.01,2013-11-16 12:37:00,
2013-11-16 06:42:00,65.7,60.4,29.26,North,0,0.0,0.0,83,0.00,,BKN,0.00,VWS V14.01,2013-11-16 12:42:00,
2013-11-16 06:47:00,65.7,60.4,29.26,North,0,0.0,0.0,83,0.00,,BKN,0.00,VWS V14.01,2013-11-16 12:47:00,
2013-11-16 06:52:00,65.7,60.0,29.26,North,0,0.0,0.0,82,0.00,,BKN,0.00,VWS V14.01,2013-11-16 12:52:00,
2013-11-16 06:57:00,65.7,60.0,29.26,North,0,0.0,0.0,82,0.00,,BKN,0.00,VWS V14.01,2013-11-16 12:57:00,
2013-11-16 07:02:00,65.8,60.2,29.26,North,0,0.0,0.0,82,0.00,,BKN,0.00,VWS V14.01,2013-11-16 13:02:00,
2013-11-16 07:07:00,65.8,60.2,29.26,North,0,0.0,0.0,82,0.00,,BKN,0.00,VWS V14.01,2013-11-16 13:07:00,
2013-11-16 07:13:00,65.8,60.2,29.26,North,0,0.0,0.0,82,0.00,,BKN,0.00,VWS V14.01,2013-11-16 13:13:00,
2013-11-16 07:18:00,65.8,60.2,29.26,North,0,0.0,0.0,82,0.00,,BKN,0.00,VWS V14.01,2013-11-16 13:18:00,
2013-11-16 07:23:00,65.8,59.8,29.29,North,0,0.0,0.0,81,0.00,,BKN,0.00,VWS V14.01,2013-11-16 13:23:00,
2013-11-16 07:28:00,65.8,59.8,29.29,North,0,0.0,0.0,81,0.00,,BKN,0.00,VWS V14.01,2013-11-16 13:28:00,
2013-11-16 07:33:00,65.8,59.8,29.29,North,0,0.0,0.0,81,0.00,,BKN,0.00,VWS V14.01,2013-11-16 13:33:00,
2013-11-16 07:38:00,66.0,60.0,29.29,North,0,0.0,0.0,81,0.00,,BKN,0.00,VWS V14.01,2013-11-16 13:38:00,
2013-11-16 07:43:00,66.0,60.0,29.29,North,0,0.0,0.0,81,0.00,,BKN,0.00,VWS V14.01,2013-11-16 13:43:00,
2013-11-16 07:49:00,66.2,59.9,29.29,North,0,0.0,0.0,80,0.00,,BKN,0.00,VWS V14.01,2013-11-16 13:49:00,
2013-11-16 07:54:00,66.2,59.5,29.26,North,0,0.0,0.0,79,0.00,,BKN,0.00,VWS V14.01,2013-11-16 13:54:00,
2013-11-16 07:59:00,66.4,59.7,29.26,North,0,0.0,0.0,79,0.00,,BKN,0.00,VWS V14.01,2013-11-16 13:59:00,
2013-11-16 08:04:00,66.6,59.8,29.26,North,0,0.0,0.0,79,0.00,,BKN,0.00,VWS V14.01,2013-11-16 14:04:00,
2013-11-16 08:09:00,66.6,59.8,29.29,North,0,0.0,0.0,79,0.00,,BKN,0.00,VWS V14.01,2013-11-16 14:09:00,
2013-11-16 08:14:00,66.7,60.0,29.29,North,0,0.0,0.0,79,0.00,,BKN,0.00,VWS V14.01,2013-11-16 14:14:00,
2013-11-16 08:19:00,66.9,59.8,29.29,North,0,0.0,0.0,78,0.00,,BKN,0.00,VWS V14.01,2013-11-16 14:19:00,
2013-11-16 08:25:00,67.1,60.0,29.29,North,0,0.0,0.0,78,0.00,,BKN,0.00,VWS V14.01,2013-11-16 14:25:00,
2013-11-16 08:30:00,67.5,60.4,29.29,North,0,0.0,0.0,78,0.00,,BKN,0.00,VWS V14.01,2013-11-16 14:30:00,
2013-11-16 08:35:00,67.6,60.2,29.29,North,0,0.0,0.0,77,0.00,,BKN,0.00,VWS V14.01,2013-11-16 14:35:00,
2013-11-16 08:40:00,67.8,60.3,29.29,North,0,0.0,0.0,77,0.00,,BKN,0.00,VWS V14.01,2013-11-16 14:40:00,
2013-11-16 08:45:00,67.8,60.3,29.29,North,0,0.0,0.0,77,0.00,,BKN,0.00,VWS V14.01,2013-11-16 14:45:00,
2013-11-16 08:50:00,67.8,60.3,29.29,North,0,0.0,0.0,77,0.00,,BKN,0.00,VWS V14.01,2013-11-16 14:50:00,
2013-11-16 08:55:00,67.8,60.7,29.29,North,0,0.0,0.0,78,0.00,,BKN,0.00,VWS V14.01,2013-11-16 14:55:00,
2013-11-16 09:00:00,67.8,60.7,29.29,North,0,0.0,0.0,78,0.00,,BKN,0.00,VWS V14.01,2013-11-16 15:00:00,
2013-11-16 09:05:00,67.8,60.7,29.29,North,0,0.0,0.0,78,0.00,,BKN,0.00,VWS V14.01,2013-11-16 15:05:00,
2013-11-16 09:10:00,67.8,60.7,29.29,North,0,0.0,0.0,78,0.00,,BKN,0.00,VWS V14.01,2013-11-16 15:10:00,
2013-11-16 09:16:00,67.8,60.7,29.29,North,0,0.0,0.0,78,0.00,,BKN,0.00,VWS V14.01,2013-11-16 15:16:00,
2013-11-16 09:21:00,67.8,60.7,29.29,North,0,0.0,0.0,78,0.00,,BKN,0.00,VWS V14.01,2013-11-16 15:21:00,
2013-11-16 09:26:00,67.8,60.7,29.29,North,0,0.0,0.0,78,0.00,,BKN,0.00,VWS V14.01,2013-11-16 15:26:00,
2013-11-16 09:31:00,67.8,61.1,29.29,North,0,0.0,0.0,79,0.00,,BKN,0.00,VWS V14.01,2013-11-16 15:31:00,
2013-11-16 09:36:00,68.0,60.9,29.29,North,0,0.0,0.0,78,0.00,,BKN,0.00,VWS V14.01,2013-11-16 15:36:00,
2013-11-16 09:41:00,68.2,61.1,29.29,North,0,0.0,0.0,78,0.00,,BKN,0.00,VWS V14.01,2013-11-16 15:41:00,
2013-11-16 09:46:00,68.4,60.9,29.29,North,0,0.0,0.0,77,0.00,,BKN,0.00,VWS V14.01,2013-11-16 15:46:00,
2013-11-16 09:52:00,68.5,60.7,29.29,North,0,0.0,0.0,76,0.00,,BKN,0.00,VWS V14.01,2013-11-16 15:52:00,
2013-11-16 09:57:00,68.7,60.9,29.29,North,0,0.0,0.0,76,0.00,,BKN,0.00,VWS V14.01,2013-11-16 15:57:00,
2013-11-16 10:02:00,68.9,61.0,29.29,North,0,0.0,0.0,76,0.00,,BKN,0.00,VWS V14.01,2013-11-16 16:02:00,
2013-11-16 10:07:00,69.3,61.0,29.29,North,0,0.0,0.0,75,0.00,,BKN,0.00,VWS V14.01,2013-11-16 16:07:00,
2013-11-16 10:12:00,69.3,60.2,29.29,North,0,0.0,0.0,73,0.00,,BKN,0.00,VWS V14.01,2013-11-16 16:12:00,
2013-11-16 10:17:00,69.4,60.8,29.29,North,0,0.0,0.0,74,0.00,,BKN,0.00,VWS V14.01,2013-11-16 16:17:00,
2013-11-16 10:23:00,69.6,61.0,29.29,North,0,0.0,0.0,74,0.00,,BKN,0.00,VWS V14.01,2013-11-16 16:23:00,
2013-11-16 10:28:00,70.0,60.9,29.29,North,0,0.0,0.0,73,0.00,,BKN,0.00,VWS V14.01,2013-11-16 16:28:00,
2013-11-16 10:33:00,70.5,61.1,29.29,North,0,0.0,0.0,72,0.00,,BKN,0.00,VWS V14.01,2013-11-16 16:33:00,
2013-11-16 10:38:00,70.7,60.8,29.29,North,0,0.0,0.0,71,0.00,,BKN,0.00,VWS V14.01,2013-11-16 16:38:00,
2013-11-16 10:43:00,71.2,61.0,29.29,North,0,0.0,0.0,70,0.00,,BKN,0.00,VWS V14.01,2013-11-16 16:43:00,
2013-11-16 10:48:00,71.8,60.7,29.29,North,0,0.0,0.0,68,0.00,,BKN,0.00,VWS V14.01,2013-11-16 16:48:00,
2013-11-16 10:54:00,71.6,60.5,29.26,North,0,0.0,0.0,68,0.00,,BKN,0.00,VWS V14.01,2013-11-16 16:54:00,
2013-11-16 10:59:00,71.8,61.1,29.26,North,0,0.0,0.0,69,0.00,,BKN,0.00,VWS V14.01,2013-11-16 16:59:00,
2013-11-16 11:04:00,72.1,60.6,29.26,North,0,0.0,0.0,67,0.00,,BKN,0.00,VWS V14.01,2013-11-16 17:04:00,
2013-11-16 11:09:00,72.5,60.9,29.26,North,0,0.0,0.0,67,0.00,,BKN,0.00,VWS V14.01,2013-11-16 17:09:00,
2013-11-16 11:14:00,72.7,60.2,29.26,North,0,0.0,0.0,65,0.00,,BKN,0.00,VWS V14.01,2013-11-16 17:14:00,
2013-11-16 11:19:00,72.9,60.8,29.26,North,0,0.0,0.0,66,0.00,,BKN,0.00,VWS V14.01,2013-11-16 17:19:00,
2013-11-16 11:24:00,73.2,60.8,29.26,North,0,0.0,0.0,65,0.00,,BKN,0.00,VWS V14.01,2013-11-16 17:24:00,
2013-11-16 11:29:00,73.8,60.8,29.26,North,0,0.0,0.0,64,0.00,,BKN,0.00,VWS V14.01,2013-11-16 17:29:00,
2013-11-16 11:35:00,73.8,59.9,29.26,North,0,0.0,0.0,62,0.00,,BKN,0.00,VWS V14.01,2013-11-16 17:35:00,
2013-11-16 11:40:00,73.6,59.8,29.23,North,0,0.0,0.0,62,0.00,,BKN,0.00,VWS V14.01,2013-11-16 17:40:00,
2013-11-16 11:45:00,73.6,60.2,29.23,North,0,0.0,0.0,63,0.00,,BKN,0.00,VWS V14.01,2013-11-16 17:45:00,
2013-11-16 11:50:00,73.6,59.8,29.23,North,0,0.0,0.0,62,0.00,,BKN,0.00,VWS V14.01,2013-11-16 17:50:00,
2013-11-16 11:55:00,73.6,59.8,29.23,North,0,0.0,0.0,62,0.00,,BKN,0.00,VWS V14.01,2013-11-16 17:55:00,
2013-11-16 12:01:00,73.8,60.4,29.23,North,0,0.0,0.0,63,0.00,,BKN,0.00,VWS V14.01,2013-11-16 18:01:00,
2013-11-16 12:06:00,73.8,59.9,29.23,North,0,0.0,0.0,62,0.00,,BKN,0.00,VWS V14.01,2013-11-16 18:06:00,
2013-11-16 12:11:00,73.8,60.4,29.23,North,0,0.0,0.0,63,0.00,,BKN,0.00,VWS V14.01,2013-11-16 18:11:00,
2013-11-16 12:16:00,73.6,60.2,29.23,North,0,0.0,0.0,63,0.00,,BKN,0.00,VWS V14.01,2013-11-16 18:16:00,
2013-11-16 12:21:00,73.8,60.4,29.23,North,0,0.0,0.0,63,0.00,,BKN,0.00,VWS V14.01,2013-11-16 18:21:00,
2013-11-16 12:26:00,74.7,60.8,29.23,North,0,0.0,0.0,62,0.00,,BKN,0.00,VWS V14.01,2013-11-16 18:26:00,
2013-11-16 12:32:00,74.8,59.6,29.23,North,0,0.0,0.0,59,0.00,,BKN,0.00,VWS V14.01,2013-11-16 18:32:00,
2013-11-16 12:37:00,74.8,60.0,29.21,North,0,0.0,0.0,60,0.00,,BKN,0.00,VWS V14.01,2013-11-16 18:37:00,
2013-11-16 12:42:00,74.8,60.0,29.21,North,0,0.0,0.0,60,0.00,,BKN,0.00,VWS V14.01,2013-11-16 18:42:00,
2013-11-16 12:47:00,75.0,60.2,29.21,North,0,0.0,0.0,60,0.00,,BKN,0.00,VWS V14.01,2013-11-16 18:47:00,
2013-11-16 12:52:00,75.0,60.2,29.21,North,0,0.0,0.0,60,0.00,,BKN,0.00,VWS V14.01,2013-11-16 18:52:00,
2013-11-16 12:57:00,75.2,59.9,29.21,North,0,0.0,0.0,59,0.00,,BKN,0.00,VWS V14.01,2013-11-16 18:57:00,
2013-11-16 13:03:00,75.4,60.5,29.21,North,0,0.0,0.0,60,0.00,,BKN,0.00,VWS V14.01,2013-11-16 19:03:00,
2013-11-16 13:08:00,75.7,59.9,29.18,North,0,0.0,0.0,58,0.00,,BKN,0.00,VWS V14.01,2013-11-16 19:08:00,
2013-11-16 13:13:00,76.1,59.8,29.18,North,0,0.0,0.0,57,0.00,,BKN,0.00,VWS V14.01,2013-11-16 19:13:00,
2013-11-16 13:18:00,75.9,59.6,29.18,North,0,0.0,0.0,57,0.00,,BKN,0.00,VWS V14.01,2013-11-16 19:18:00,
2013-11-16 13:24:00,75.9,60.1,29.18,North,0,0.0,0.0,58,0.00,,BKN,0.00,VWS V14.01,2013-11-16 19:24:00,
2013-11-16 13:29:00,76.1,60.3,29.18,North,0,0.0,0.0,58,0.00,,BKN,0.00,VWS V14.01,2013-11-16 19:29:00,
2013-11-16 13:34:00,76.3,60.4,29.18,North,0,0.0,0.0,58,0.00,,BKN,0.00,VWS V14.01,2013-11-16 19:34:00,
2013-11-16 13:39:00,76.3,60.4,29.15,North,0,0.0,0.0,58,0.00,,BKN,0.00,VWS V14.01,2013-11-16 19:39:00,
2013-11-16 13:44:00,76.6,60.8,29.15,North,0,0.0,0.0,58,0.00,,BKN,0.00,VWS V14.01,2013-11-16 19:44:00,
2013-11-16 13:49:00,77.4,60.0,29.15,North,0,0.0,0.0,55,0.00,,BKN,0.00,VWS V14.01,2013-11-16 19:49:00,
2013-11-16 13:55:00,77.5,60.6,29.15,North,0,0.0,0.0,56,0.00,,BKN,0.00,VWS V14.01,2013-11-16 19:55:00,
2013-11-16 14:00:00,77.5,59.6,29.15,North,0,0.0,0.0,54,0.00,,BKN,0.00,VWS V14.01,2013-11-16 20:00:00,
2013-11-16 14:05:00,77.5,59.6,29.15,North,0,0.0,0.0,54,0.00,,BKN,0.00,VWS V14.01,2013-11-16 20:05:00,
2013-11-16 14:10:00,77.0,60.1,29.15,North,0,0.0,0.0,56,0.00,,BKN,0.00,VWS V14.01,2013-11-16 20:10:00,
2013-11-16 14:15:00,77.2,59.8,29.15,North,0,0.0,0.0,55,0.00,,BKN,0.00,VWS V14.01,2013-11-16 20:15:00,
2013-11-16 14:20:00,77.4,60.0,29.15,North,0,0.0,0.0,55,0.00,,BKN,0.00,VWS V14.01,2013-11-16 20:20:00,
2013-11-16 14:26:00,77.7,60.3,29.15,North,0,0.0,0.0,55,0.00,,BKN,0.00,VWS V14.01,2013-11-16 20:26:00,
2013-11-16 14:31:00,77.7,59.2,29.15,North,0,0.0,0.0,53,0.00,,BKN,0.00,VWS V14.01,2013-11-16 20:31:00,
2013-11-16 14:36:00,77.4,59.4,29.15,North,0,0.0,0.0,54,0.00,,BKN,0.00,VWS V14.01,2013-11-16 20:36:00,
2013-11-16 14:41:00,77.7,59.8,29.15,North,0,0.0,0.0,54,0.00,,BKN,0.00,VWS V14.01,2013-11-16 20:41:00,
2013-11-16 14:46:00,77.9,59.4,29.15,North,0,0.0,0.0,53,0.00,,BKN,0.00,VWS V14.01,2013-11-16 20:46:00,
2013-11-16 14:51:00,77.5,58.5,29.15,North,0,0.0,0.0,52,0.00,,BKN,0.00,VWS V14.01,2013-11-16 20:51:00,
2013-11-16 14:56:00,77.4,58.9,29.15,North,0,0.0,0.0,53,0.00,,BKN,0.00,VWS V14.01,2013-11-16 20:56:00,
2013-11-16 15:02:00,77.5,59.6,29.15,North,0,0.0,0.0,54,0.00,,BKN,0.00,VWS V14.01,2013-11-16 21:02:00,
2013-11-16 15:07:00,77.7,59.2,29.12,North,0,0.0,0.0,53,0.00,,BKN,0.00,VWS V14.01,2013-11-16 21:07:00,
2013-11-16 15:12:00,77.9,58.9,29.12,North,0,0.0,0.0,52,0.00,,BKN,0.00,VWS V14.01,2013-11-16 21:12:00,
2013-11-16 15:17:00,78.1,59.6,29.12,North,0,0.0,0.0,53,0.00,,BKN,0.00,VWS V14.01,2013-11-16 21:17:00,
2013-11-16 15:22:00,78.1,59.0,29.12,North,0,0.0,0.0,52,0.00,,BKN,0.00,VWS V14.01,2013-11-16 21:22:00,
2013-11-16 15:27:00,77.9,59.9,29.12,North,0,0.0,0.0,54,0.00,,BKN,0.00,VWS V14.01,2013-11-16 21:27:00,
2013-11-16 15:32:00,77.9,59.9,29.12,North,0,0.0,0.0,54,0.00,,BKN,0.00,VWS V14.01,2013-11-16 21:32:00,
2013-11-16 15:37:00,77.4,59.4,29.12,North,0,0.0,0.0,54,0.00,,BKN,0.00,VWS V14.01,2013-11-16 21:37:00,
2013-11-16 15:43:00,76.6,59.8,29.12,North,0,0.0,0.0,56,0.00,,BKN,0.00,VWS V14.01,2013-11-16 21:43:00,
2013-11-16 15:48:00,76.3,60.0,29.12,North,0,0.0,0.0,57,0.00,,BKN,0.00,VWS V14.01,2013-11-16 21:48:00,
2013-11-16 15:53:00,76.1,60.3,29.15,North,0,0.0,0.0,58,0.00,,BKN,0.00,VWS V14.01,2013-11-16 21:53:00,
2013-11-16 15:58:00,76.1,60.3,29.15,North,0,0.0,0.0,58,0.00,,BKN,0.00,VWS V14.01,2013-11-16 21:58:00,
2013-11-16 16:03:00,76.1,60.3,29.15,North,0,0.0,0.0,58,0.00,,BKN,0.00,VWS V14.01,2013-11-16 22:03:00,
2013-11-16 16:08:00,76.1,59.8,29.12,North,0,0.0,0.0,57,0.00,,BKN,0.00,VWS V14.01,2013-11-16 22:08:00,
2013-11-16 16:14:00,75.9,60.1,29.12,North,0,0.0,0.0,58,0.00,,BKN,0.00,VWS V14.01,2013-11-16 22:14:00,
2013-11-16 16:19:00,75.9,60.1,29.12,North,0,0.0,0.0,58,0.00,,BKN,0.00,VWS V14.01,2013-11-16 22:19:00,
2013-11-16 16:24:00,75.9,60.1,29.12,North,0,0.0,0.0,58,0.00,,BKN,0.00,VWS V14.01,2013-11-16 22:24:00,
2013-11-16 16:29:00,75.9,60.6,29.12,North,0,0.0,0.0,59,0.00,,BKN,0.00,VWS V14.01,2013-11-16 22:29:00,
2013-11-16 16:34:00,75.9,60.6,29.12,North,0,0.0,0.0,59,0.00,,BKN,0.00,VWS V14.01,2013-11-16 22:34:00,
2013-11-16 16:39:00,75.7,60.4,29.12,North,0,0.0,0.0,59,0.00,,BKN,0.00,VWS V14.01,2013-11-16 22:39:00,
2013-11-16 16:45:00,75.7,60.9,29.12,North,0,0.0,0.0,60,0.00,,BKN,0.00,VWS V14.01,2013-11-16 22:45:00,
2013-11-16 16:50:00,75.6,60.7,29.12,North,0,0.0,0.0,60,0.00,,BKN,0.00,VWS V14.01,2013-11-16 22:50:00,
2013-11-16 16:55:00,75.6,60.7,29.12,North,0,0.0,0.0,60,0.00,,BKN,0.00,VWS V14.01,2013-11-16 22:55:00,
2013-11-16 17:00:00,75.4,61.0,29.12,North,0,0.0,0.0,61,0.00,,BKN,0.00,VWS V14.01,2013-11-16 23:00:00,
2013-11-16 17:05:00,75.2,61.3,29.12,North,0,0.0,0.0,62,0.00,,BKN,0.00,VWS V14.01,2013-11-16 23:05:00,
2013-11-16 17:10:00,75.2,61.3,29.12,North,0,0.0,0.0,62,0.00,,BKN,0.00,VWS V14.01,2013-11-16 23:10:00,
2013-11-16 17:15:00,75.0,61.6,29.12,North,0,0.0,0.0,63,0.00,,BKN,0.00,VWS V14.01,2013-11-16 23:15:00,
2013-11-16 17:20:00,74.8,61.4,29.12,North,0,0.0,0.0,63,0.00,,BKN,0.00,VWS V14.01,2013-11-16 23:20:00,
2013-11-16 17:25:00,74.7,61.7,29.12,North,0,0.0,0.0,64,0.00,,BKN,0.00,VWS V14.01,2013-11-16 23:25:00,
2013-11-16 17:30:00,74.5,61.5,29.12,North,0,0.0,0.0,64,0.00,,BKN,0.00,VWS V14.01,2013-11-16 23:30:00,
2013-11-16 17:35:00,74.1,61.6,29.12,North,0,0.0,0.0,65,0.00,,BKN,0.00,VWS V14.01,2013-11-16 23:35:00,
2013-11-16 17:40:00,73.9,61.4,29.12,North,0,0.0,0.0,65,0.00,,BKN,0.00,VWS V14.01,2013-11-16 23:40:00,
2013-11-16 17:46:00,73.9,61.9,29.12,North,0,0.0,0.0,66,0.00,,BKN,0.00,VWS V14.01,2013-11-16 23:46:00,
2013-11-16 17:51:00,73.8,62.1,29.12,North,0,0.0,0.0,67,0.00,,BKN,0.00,VWS V14.01,2013-11-16 23:51:00,
2013-11-16 17:56:00,73.6,62.0,29.12,North,0,0.0,0.0,67,0.00,,BKN,0.00,VWS V14.01,2013-11-16 23:56:00,
2013-11-16 18:01:00,73.4,61.8,29.12,North,0,0.0,0.0,67,0.00,,BKN,0.00,VWS V14.01,2013-11-17 00:01:00,
2013-11-16 18:06:00,73.2,62.0,29.12,North,0,0.0,0.0,68,0.00,,BKN,0.00,VWS V14.01,2013-11-17 00:06:00,
2013-11-16 18:11:00,73.0,62.3,29.12,North,0,0.0,0.0,69,0.00,,BKN,0.00,VWS V14.01,2013-11-17 00:11:00,
2013-11-16 18:16:00,73.0,62.7,29.12,North,0,0.0,0.0,70,0.00,,BKN,0.00,VWS V14.01,2013-11-17 00:16:00,
2013-11-16 18:22:00,72.9,62.9,29.15,North,0,0.0,0.0,71,0.00,,BKN,0.00,VWS V14.01,2013-11-17 00:22:00,
2013-11-16 18:27:00,72.7,63.5,29.15,North,0,0.0,0.0,73,0.00,,BKN,0.00,VWS V14.01,2013-11-17 00:27:00,
2013-11-16 18:33:00,72.7,63.5,29.15,North,0,0.0,0.0,73,0.00,,BKN,0.00,VWS V14.01,2013-11-17 00:33:00,
2013-11-16 18:38:00,72.5,64.1,29.12,North,0,0.0,0.0,75,0.00,,BKN,0.00,VWS V14.01,2013-11-17 00:38:00,
2013-11-16 18:43:00,72.5,64.5,29.12,North,0,0.0,0.0,76,0.00,,BKN,0.00,VWS V14.01,2013-11-17 00:43:00,
2013-11-16 18:48:00,72.3,64.3,29.12,North,0,0.0,0.0,76,0.00,,BKN,0.00,VWS V14.01,2013-11-17 00:48:00,
2013-11-16 18:53:00,72.3,64.3,29.15,North,0,0.0,0.0,76,0.00,,BKN,0.00,VWS V14.01,2013-11-17 00:53:00,
2013-11-16 18:59:00,72.3,64.7,29.15,North,0,0.0,0.0,77,0.00,,BKN,0.00,VWS V14.01,2013-11-17 00:59:00,
2013-11-16 19:04:00,72.1,64.5,29.15,North,0,0.0,0.0,77,0.00,,BKN,0.00,VWS V14.01,2013-11-17 01:04:00,
2013-11-16 19:09:00,72.1,64.5,29.15,North,0,0.0,0.0,77,0.00,,BKN,0.00,VWS V14.01,2013-11-17 01:09:00,
2013-11-16 19:14:00,72.1,64.5,29.15,North,0,0.0,0.0,77,0.00,,BKN,0.00,VWS V14.01,2013-11-17 01:14:00,
2013-11-16 19:19:00,72.1,64.9,29.15,North,0,0.0,0.0,78,0.00,,BKN,0.00,VWS V14.01,2013-11-17 01:19:00,
2013-11-16 19:24:00,72.1,64.9,29.15,North,0,0.0,0.0,78,0.00,,BKN,0.00,VWS V14.01,2013-11-17 01:24:00,
2013-11-16 19:29:00,72.1,64.9,29.15,North,0,0.0,0.0,78,0.00,,BKN,0.00,VWS V14.01,2013-11-17 01:29:00,
2013-11-16 19:34:00,72.1,64.9,29.15,North,0,0.0,0.0,78,0.00,,BKN,0.00,VWS V14.01,2013-11-17 01:34:00,
2013-11-16 19:40:00,72.1,64.9,29.15,North,0,0.0,0.0,78,0.00,,BKN,0.00,VWS V14.01,2013-11-17 01:40:00,
2013-11-16 19:45:00,72.0,64.7,29.15,North,0,0.0,0.0,78,0.00,,BKN,0.00,VWS V14.01,2013-11-17 01:45:00,
2013-11-16 19:50:00,72.0,64.7,29.15,North,0,0.0,0.0,78,0.00,,BKN,0.00,VWS V14.01,2013-11-17 01:50:00,
2013-11-16 19:55:00,72.0,65.1,29.15,North,0,0.0,0.0,79,0.00,,BKN,0.00,VWS V14.01,2013-11-17 01:55:00,
2013-11-16 20:00:00,71.8,64.9,29.15,North,0,0.0,0.0,79,0.00,,BKN,0.00,VWS V14.01,2013-11-17 02:00:00,
2013-11-16 20:05:00,71.8,64.9,29.15,North,0,0.0,0.0,79,0.00,,BKN,0.00,VWS V14.01,2013-11-17 02:05:00,
2013-11-16 20:11:00,71.8,64.9,29.15,North,0,0.0,0.0,79,0.00,,BKN,0.00,VWS V14.01,2013-11-17 02:11:00,
2013-11-16 20:16:00,71.6,64.8,29.15,North,0,0.0,0.0,79,0.00,,BKN,0.00,VWS V14.01,2013-11-17 02:16:00,
2013-11-16 20:21:00,71.6,65.1,29.15,North,0,0.0,0.0,80,0.00,,BKN,0.00,VWS V14.01,2013-11-17 02:21:00,
2013-11-16 20:26:00,71.6,65.1,29.15,North,0,0.0,0.0,80,0.00,,BKN,0.00,VWS V14.01,2013-11-17 02:26:00,
2013-11-16 20:31:00,71.6,65.1,29.15,North,0,0.0,0.0,80,0.00,,BKN,0.00,VWS V14.01,2013-11-17 02:31:00,
2013-11-16 20:36:00,71.6,65.1,29.15,North,0,0.0,0.0,80,0.00,,BKN,0.00,VWS V14.01,2013-11-17 02:36:00,
2013-11-16 20:41:00,71.4,65.3,29.15,North,0,0.0,0.0,81,0.00,,BKN,0.00,VWS V14.01,2013-11-17 02:41:00,
2013-11-16 20:47:00,71.4,65.6,29.15,North,0,0.0,0.0,82,0.00,,BKN,0.00,VWS V14.01,2013-11-17 02:47:00,
2013-11-16 20:52:00,71.2,65.5,29.15,North,0,0.0,0.0,82,0.00,,BKN,0.00,VWS V14.01,2013-11-17 02:52:00,
2013-11-16 20:57:00,71.4,66.3,29.15,North,0,0.0,0.0,84,0.00,,BKN,0.00,VWS V14.01,2013-11-17 02:57:00,
2013-11-16 21:02:00,71.4,66.3,29.15,North,0,0.0,0.0,84,0.00,,BKN,0.00,VWS V14.01,2013-11-17 03:02:00,
2013-11-16 21:07:00,71.4,66.3,29.15,North,0,0.0,0.0,84,0.00,,BKN,0.00,VWS V14.01,2013-11-17 03:07:00,
2013-11-16 21:12:00,71.4,66.3,29.15,North,0,0.0,0.0,84,0.00,,BKN,0.00,VWS V14.01,2013-11-17 03:12:00,
2013-11-16 21:17:00,71.4,66.7,29.15,North,0,0.0,0.0,85,0.00,,BKN,0.00,VWS V14.01,2013-11-17 03:17:00,
2013-11-16 21:23:00,71.4,67.0,29.15,North,0,0.0,0.0,86,0.00,,BKN,0.00,VWS V14.01,2013-11-17 03:23:00,
2013-11-16 21:28:00,71.6,67.2,29.15,North,0,0.0,0.0,86,0.00,,BKN,0.00,VWS V14.01,2013-11-17 03:28:00,
2013-11-16 21:33:00,71.6,67.2,29.15,North,0,0.0,0.0,86,0.00,,BKN,0.00,VWS V14.01,2013-11-17 03:33:00,
2013-11-16 21:38:00,71.6,67.2,29.15,North,0,0.0,0.0,86,0.00,,BKN,0.00,VWS V14.01,2013-11-17 03:38:00,
2013-11-16 21:43:00,71.8,67.7,29.15,North,0,0.0,0.0,87,0.00,,BKN,0.00,VWS V14.01,2013-11-17 03:43:00,
2013-11-16 21:48:00,71.8,67.7,29.15,North,0,0.0,0.0,87,0.00,,BKN,0.00,VWS V14.01,2013-11-17 03:48:00,
2013-11-16 21:53:00,72.0,67.9,29.18,North,0,0.0,0.0,87,0.00,,BKN,0.00,VWS V14.01,2013-11-17 03:53:00,
2013-11-16 21:59:00,72.1,68.1,29.18,North,0,0.0,0.0,87,0.00,,BKN,0.00,VWS V14.01,2013-11-17 03:59:00,
2013-11-16 22:04:00,72.3,68.2,29.18,North,0,0.0,0.0,87,0.00,,BKN,0.00,VWS V14.01,2013-11-17 04:04:00,
2013-11-16 22:09:00,72.5,68.4,29.18,North,0,0.0,0.0,87,0.00,,BKN,0.00,VWS V14.01,2013-11-17 04:09:00,
2013-11-16 22:14:00,72.7,68.3,29.18,North,0,0.0,0.0,86,0.00,,BKN,0.00,VWS V14.01,2013-11-17 04:14:00,
2013-11-16 22:19:00,72.7,68.3,29.18,North,0,0.0,0.0,86,0.00,,BKN,0.00,VWS V14.01,2013-11-17 04:19:00,
2013-11-16 22:25:00,72.9,68.1,29.18,North,0,0.0,0.0,85,0.00,,BKN,0.00,VWS V14.01,2013-11-17 04:25:00,
2013-11-16 22:30:00,72.9,68.1,29.18,North,0,0.0,0.0,85,0.00,,BKN,0.00,VWS V14.01,2013-11-17 04:30:00,
2013-11-16 22:35:00,73.0,68.3,29.18,North,0,0.0,0.0,85,0.00,,BKN,0.00,VWS V14.01,2013-11-17 04:35:00,
2013-11-16 22:40:00,73.0,67.9,29.18,North,0,0.0,0.0,84,0.00,,BKN,0.00,VWS V14.01,2013-11-17 04:40:00,
2013-11-16 22:45:00,72.9,67.8,29.18,North,0,0.0,0.0,84,0.00,,BKN,0.00,VWS V14.01,2013-11-17 04:45:00,
2013-11-16 22:50:00,72.9,67.8,29.18,North,0,0.0,0.0,84,0.00,,BKN,0.00,VWS V14.01,2013-11-17 04:50:00,
2013-11-16 22:55:00,72.9,68.1,29.18,North,0,0.0,0.0,85,0.00,,BKN,0.00,VWS V14.01,2013-11-17 04:55:00,
2013-11-16 23:00:00,72.9,68.1,29.18,North,0,0.0,0.0,85,0.00,,BKN,0.00,VWS V14.01,2013-11-17 05:00:00,
2013-11-16 23:01:00,72.9,68.1,29.18,North,0,0.0,0.0,85,0.00,,BKN,0.00,VWS V14.01,2013-11-17 05:01:00,
2013-11-16 23:02:00,72.9,68.1,29.18,North,0,0.0,0.0,85,0.00,,BKN,0.00,VWS V14.01,2013-11-17 05:02:00,
2013-11-16 23:03:00,72.9,68.1,29.18,North,0,0.0,0.0,85,0.00,,BKN,0.00,VWS V14.01,2013-11-17 05:03:00,
2013-11-16 23:08:00,72.9,68.1,29.18,North,0,0.0,0.0,85,0.00,,BKN,0.00,VWS V14.01,2013-11-17 05:08:00,
2013-11-16 23:13:00,72.9,68.1,29.18,North,0,0.0,0.0,85,0.00,,BKN,0.00,VWS V14.01,2013-11-17 05:13:00,
2013-11-16 23:19:00,73.0,68.3,29.18,North,0,0.0,0.0,85,0.00,,BKN,0.00,VWS V14.01,2013-11-17 05:19:00,
2013-11-16 23:24:00,73.0,67.9,29.15,North,0,0.0,0.0,84,0.00,,BKN,0.00,VWS V14.01,2013-11-17 05:24:00,
2013-11-16 23:29:00,73.0,67.9,29.15,North,0,0.0,0.0,84,0.00,,BKN,0.00,VWS V14.01,2013-11-17 05:29:00,
2013-11-16 23:34:00,73.2,68.1,29.15,North,0,0.0,0.0,84,0.00,,BKN,0.00,VWS V14.01,2013-11-17 05:34:00,
2013-11-16 23:39:00,73.2,67.8,29.18,North,0,0.0,0.0,83,0.00,,BKN,0.00,VWS V14.01,2013-11-17 05:39:00,
2013-11-16 23:44:00,73.2,67.8,29.18,North,0,0.0,0.0,83,0.00,,BKN,0.00,VWS V14.01,2013-11-17 05:44:00,
2013-11-16 23:50:00,73.2,67.8,29.18,North,0,0.0,0.0,83,0.00,,BKN,0.00,VWS V14.01,2013-11-17 05:50:00,
2013-11-16 23:55:00,73.2,67.8,29.18,North,0,0.0,0.0,83,0.00,,BKN,0.00,VWS V14.01,2013-11-17 05:55:00,